Location: Newark
(14.9306°N, 3.4333°E)
Time: 11:29:56
(UTC+00:00)

LightSail 2 - Visible Passes

Search period start: 23 October 2019 00:00
Search period end: 02 November 2019 00:00
Orbit: 707 x 722 km, 24.0° (Epoch: 22 October)

Date Brightness Start Highest point End Pass type
(mag) Time Alt. Az. Time Alt. Az. Time Alt. Az.
23 Oct 5.1 18:12:35 10° WNW 18:17:45 88° NNE 18:21:22 20° ESE visible
23 Oct 7.6 19:58:49 10° W 20:00:24 18° WSW 20:00:24 18° WSW visible
24 Oct 6.1 19:00:49 10° W 19:05:36 39° SSW 19:06:48 34° S visible
25 Oct 5.7 18:02:59 10° W 18:08:00 56° SSW 18:13:02 10° SE visible
25 Oct 7.7 19:50:20 10° WSW 19:52:17 15° SW 19:52:17 15° SW visible
26 Oct 7.1 18:51:49 10° WSW 18:55:47 23° SSW 18:58:49 14° SSE visible
27 Oct 6.7 17:53:38 10° W 17:58:11 32° SSW 18:02:44 10° SE visible
28 Oct 7.8 18:43:53 10° SW 18:45:58 12° SSW 18:48:02 10° S visible
29 Oct 7.6 17:44:51 10° WSW 17:48:18 18° SSW 17:51:45 10° SSE visible
31 Oct 7.6 05:14:47 10° SSW 05:18:27 19° SSE 05:22:06 10° ESE visible
01 Nov 7.8 04:18:18 10° S 04:20:45 13° SSE 04:23:13 10° SE visible
